KC8YVF-1 Weather Reports


time (UTC)temp
C
wind
direction
speed
KPH
gust
KPH
rain 1hr
cm
rain 24hr
cm
rain mn
cm
humidity
%
barometer
mb
20260509043009 8 248 0.0 0.0 0.00 0.00 0.00 51 992.4
20260509042508 9 248 0.0 0.0 0.00 0.00 0.00 51 992.5
20260509041016 9 248 0.0 0.0 0.00 0.00 0.00 50 992.5
20260509040508 9 248 0.0 0.0 0.00 0.00 0.00 50 992.5
20260509040008 10 248 0.0 0.0 0.00 0.00 0.00 50 992.7
20260509035515 10 248 0.0 0.0 0.00 0.00 0.00 49 992.8
20260509034509 10 248 0.0 0.0 0.00 0.00 0.00 49 992.8
20260509034009 10 248 0.0 0.0 0.00 0.00 0.00 48 992.8
20260509033508 10 248 0.0 0.0 0.00 0.00 0.00 47 993.1
20260509033009 10 248 0.0 0.0 0.00 0.00 0.00 47 993.1
20260509032509 10 248 0.0 0.0 0.00 0.00 0.00 46 992.8
20260509031509 10 248 0.0 0.0 0.00 0.00 0.00 46 993.2
20260509031014 11 248 0.0 0.0 0.00 0.00 0.00 46 993.2
20260509030008 11 248 0.0 0.0 0.00 0.00 0.00 45 993.2
20260509025508 11 248 0.0 0.0 0.00 0.00 0.00 44 993.2
20260509025008 11 248 0.0 0.0 0.00 0.00 0.00 44 993.3
20260509024008 11 248 0.0 0.0 0.00 0.00 0.00 43 993.5
20260509023509 11 248 0.0 0.0 0.00 0.00 0.00 43 993.2
20260509023008 12 248 0.0 0.0 0.00 0.00 0.00 42 993.2
20260509022515 12 248 0.0 0.0 0.00 0.00 0.00 42 993.3
20260509022008 12 248 0.0 0.0 0.00 0.00 0.00 42 993.3
20260509021509 12 248 0.0 0.0 0.00 0.00 0.00 42 993.5
20260509021008 12 248 0.0 0.0 0.00 0.00 0.00 42 993.2
20260509020508 12 248 0.0 0.0 0.00 0.00 0.00 41 993.2
20260509020008 13 248 0.0 0.0 0.00 0.00 0.00 40 993.2
20260509015507 13 248 0.0 0.0 0.00 0.00 0.00 39 993.2
20260509015008 13 248 0.0 0.0 0.00 0.00 0.00 39 993.2
20260509014007 13 248 0.0 0.0 0.00 0.00 0.00 38 993.2
20260509013507 14 248 0.0 0.0 0.00 0.00 0.00 38 993.2
20260509013008 14 248 0.0 0.0 0.00 0.00 0.00 37 992.9
20260509012507 15 248 0.0 0.0 0.00 0.00 0.00 37 992.9
20260509012007 15 248 0.0 0.0 0.00 0.00 0.00 37 992.8
20260509011508 15 248 0.0 0.0 0.00 0.00 0.00 37 993.0
20260509011007 15 248 0.0 0.0 0.00 0.00 0.00 37 992.8
20260509010508 15 248 0.0 0.0 0.00 0.00 0.00 36 992.8
20260509010007 15 248 0.0 0.0 0.00 0.00 0.00 36 992.8
20260509005508 16 248 0.0 0.0 0.00 0.00 0.00 36 992.8
20260509005007 16 248 0.0 0.0 0.00 0.00 0.00 36 992.9
20260509004507 16 248 0.0 0.0 0.00 0.00 0.00 36 992.8
20260509004007 16 248 0.0 0.0 0.00 0.00 0.00 36 992.8
20260509003506 16 248 0.0 0.0 0.00 0.00 0.00 35 992.8
20260509002508 16 248 0.0 0.0 0.00 0.00 0.00 35 992.7
20260509001008 17 270 0.0 0.0 0.00 0.00 0.00 35 992.6
20260509000508 17 270 0.0 0.0 0.00 0.00 0.00 34 992.5
20260509000007 17 225 0.0 0.0 0.00 0.00 0.00 34 992.5
20260508235506 17 248 0.0 0.0 0.00 0.00 0.00 34 992.5
20260508235006 17 248 0.0 0.0 0.00 0.00 0.00 34 992.5
20260508234006 17 158 0.0 0.0 0.00 0.00 0.00 34 992.5
20260508233506 17 248 0.0 0.0 0.00 0.00 0.00 33 992.5
20260508232514 17 225 0.0 0.0 0.00 0.00 0.00 33 992.6
20260508232007 17 248 0.0 0.0 0.00 0.00 0.00 33 992.8
20260508231507 17 270 0.0 0.0 0.00 0.00 0.00 33 992.8
20260508231013 18 225 0.0 0.0 0.00 0.00 0.00 33 992.8
20260508230506 18 225 0.0 0.0 0.00 0.00 0.00 32 992.8
20260508230007 18 225 0.0 0.0 0.00 0.00 0.00 32 992.8
20260508225514 18 180 0.0 0.0 0.00 0.00 0.00 32 992.8
20260508225006 18 225 0.0 0.0 0.00 0.00 0.00 33 992.8
20260508224006 18 248 0.0 0.0 0.00 0.00 0.00 32 992.8
20260508222507 18 270 0.0 0.0 0.00 0.00 0.00 32 993.2
20260508222008 18 225 0.0 0.0 0.00 0.00 0.00 32 993.2
20260508221006 18 180 0.0 0.0 0.00 0.00 0.00 32 993.2
20260508220507 18 225 0.0 0.0 0.00 0.00 0.00 32 993.2
20260508220007 18 248 0.0 0.0 0.00 0.00 0.00 32 993.2
20260508215507 18 180 0.0 0.0 0.00 0.00 0.00 33 993.2
20260508215006 18 203 0.0 0.0 0.00 0.00 0.00 32 993.2
20260508214506 18 225 0.0 0.0 0.00 0.00 0.00 32 993.2
20260508214014 18 180 0.0 0.0 0.00 0.00 0.00 32 993.2
20260508213507 19 270 0.0 0.0 0.00 0.00 0.00 32 993.2
20260508213006 19 270 0.0 0.0 0.00 0.00 0.00 33 993.2
20260508212507 19 180 0.0 0.0 0.00 0.00 0.00 33 993.2
20260508212007 19 203 0.0 0.0 0.00 0.00 0.00 32 993.2
20260508211506 19 270 0.0 0.0 0.00 0.00 0.00 33 993.2
20260508211006 19 203 0.0 0.0 0.00 0.00 0.00 32 993.4
20260508210506 19 225 0.0 0.0 0.00 0.00 0.00 33 993.5
20260508210006 19 248 0.0 0.0 0.00 0.00 0.00 33 993.5
20260508205514 19 225 0.0 0.0 0.00 0.00 0.00 34 993.5
20260508205007 18 225 0.0 0.0 0.00 0.00 0.00 33 993.5
20260508204506 18 203 0.0 0.0 0.00 0.00 0.00 33 993.5
20260508204006 18 225 0.0 0.0 0.00 0.00 0.00 33 993.9
20260508203007 18 203 0.0 0.0 0.00 0.00 0.00 34 993.9
20260508202507 18 203 0.0 0.0 0.00 0.00 0.00 34 993.9
20260508201506 18 315 0.0 0.0 0.00 0.00 0.00 35 994.1
20260508201006 18 248 0.0 0.0 0.00 0.00 0.00 35 994.2
20260508200507 18 293 0.0 0.0 0.00 0.00 0.00 34 994.2
20260508195506 18 225 0.0 0.0 0.00 0.00 0.00 34 994.4
20260508195006 19 225 0.0 0.0 0.00 0.00 0.00 34 994.2
20260508194507 19 180 0.0 0.0 0.00 0.00 0.00 34 994.5
20260508194014 19 180 0.0 0.0 0.00 0.00 0.00 35 994.5
20260508193506 19 180 0.0 0.0 0.00 0.00 0.00 35 994.8
20260508193007 19 180 0.0 0.0 0.00 0.00 0.00 35 994.6
20260508192507 19 248 0.0 0.0 0.00 0.00 0.00 35 994.9
20260508191506 18 270 0.0 0.0 0.00 0.00 0.00 36 994.9
20260508191014 18 270 0.0 0.0 0.00 0.00 0.00 36 995.2
20260508190506 18 225 0.0 0.0 0.00 0.00 0.00 36 995.2
20260508190006 18 270 0.0 0.0 0.00 0.00 0.00 35 995.2
20260508185506 18 248 0.0 0.0 0.00 0.00 0.00 35 995.2
20260508185006 18 248 0.0 0.0 0.00 0.00 0.00 36 995.2
20260508184008 18 180 0.0 0.0 0.00 0.00 0.00 36 995.3
20260508183507 17 270 0.0 0.0 0.00 0.00 0.00 36 995.2
20260508183007 17 158 0.0 0.0 0.00 0.00 0.00 36 995.5
20260508182513 17 225 0.0 0.0 0.00 0.00 0.00 36 995.5
20260508181007 17 248 0.0 0.0 0.00 0.00 0.00 37 995.7
20260508180507 17 203 0.0 0.0 0.00 0.00 0.00 36 995.5
20260508175506 17 293 0.0 0.0 0.00 0.00 0.00 37 995.9
20260508175006 17 225 0.0 0.0 0.00 0.00 0.00 38 995.9
20260508174007 17 270 0.0 0.0 0.00 0.00 0.00 38 995.9
20260508173506 17 270 0.0 0.0 0.00 0.00 0.00 39 996.2
20260508172507 17 180 0.0 0.0 0.00 0.00 0.00 39 996.2
20260508172007 17 270 0.0 0.0 0.00 0.00 0.00 38 996.4
20260508171014 17 203 0.0 0.0 0.00 0.00 0.00 39 996.6
20260508170506 17 270 0.0 0.0 0.00 0.00 0.00 39 996.6
20260508170007 17 180 0.0 0.0 0.00 0.00 0.00 42 996.6
20260508165507 17 180 0.0 0.0 0.00 0.00 0.00 42 996.6
20260508165007 16 315 0.0 0.0 0.00 0.00 0.00 42 996.6
20260508164013 16 158 0.0 0.0 0.00 0.00 0.00 42 996.9
20260508163507 16 248 0.0 0.0 0.00 0.00 0.00 42 996.9
20260508163006 16 248 0.0 0.0 0.00 0.00 0.00 43 997.2
20260508162506 15 203 0.0 0.0 0.00 0.00 0.00 43 996.9
20260508162007 15 180 0.0 0.0 0.00 0.00 0.00 44 996.9
20260508161507 15 248 0.0 0.0 0.00 0.00 0.00 44 997.0
20260508161014 15 158 0.0 0.0 0.00 0.00 0.00 45 997.2
20260508160506 15 180 0.0 0.0 0.00 0.00 0.00 46 997.2
20260508160006 14 225 0.0 0.0 0.00 0.00 0.00 47 997.2
20260508155508 14 225 0.0 0.0 0.00 0.00 0.00 47 997.2
20260508155007 13 270 0.0 0.0 0.00 0.00 0.00 47 997.2
20260508154507 13 248 0.0 0.0 0.00 0.00 0.00 49 997.2
20260508154014 13 315 0.0 0.0 0.00 0.00 0.00 50 997.4
20260508153507 12 293 0.0 0.0 0.00 0.00 0.00 50 997.6
20260508152506 12 248 0.0 0.0 0.00 0.00 0.00 51 997.6
20260508152006 12 158 0.0 0.0 0.00 0.00 0.00 53 997.6
20260508151008 11 248 0.0 0.0 0.00 0.00 0.00 55 997.6
20260508150507 11 158 0.0 0.0 0.00 0.00 0.00 56 997.6
20260508150007 11 180 0.0 0.0 0.00 0.00 0.00 56 997.6
20260508145506 11 248 0.0 0.0 0.00 0.00 0.00 57 997.6
20260508145007 11 180 0.0 0.0 0.00 0.00 0.00 57 997.6
20260508144014 11 180 0.0 0.0 0.00 0.00 0.00 59 997.8
20260508143508 10 248 0.0 0.0 0.00 0.00 0.00 60 997.7
20260508143006 10 248 0.0 0.0 0.00 0.00 0.00 61 997.9
20260508142514 10 225 0.0 0.0 0.00 0.00 0.00 60 997.9
20260508141508 10 248 0.0 0.0 0.00 0.00 0.00 61 997.9
20260508140848 10 225 0.0 0.0 0.00 0.00 0.00 62 998.0
20260508135508 10 158 0.0 0.0 0.00 0.00 0.00 64 997.9
20260508135349 10 248 0.0 0.0 0.00 0.00 0.00 64 997.9
20260508135007 10 180 0.0 0.0 0.00 0.00 0.00 64 997.9
20260508134506 10 158 0.0 0.0 0.00 0.00 0.00 64 997.9
20260508134007 10 203 0.0 0.0 0.00 0.00 0.00 65 998.3
20260508133849 10 203 0.0 0.0 0.00 0.00 0.00 65 998.2
20260508133507 10 158 0.0 0.0 0.00 0.00 0.00 65 998.2
20260508133006 10 248 0.0 0.0 0.00 0.00 0.00 66 998.0
20260508132507 10 203 0.0 0.0 0.00 0.00 0.00 66 997.9
20260508132348 10 203 0.0 0.0 0.00 0.00 0.00 66 998.1
20260508132007 10 225 0.0 0.0 0.00 0.00 0.00 66 998.0
20260508131507 10 225 0.0 0.0 0.00 0.00 0.00 68 998.0
20260508131007 10 270 0.0 0.0 0.00 0.00 0.00 68 998.3
20260508130848 9 248 0.0 0.0 0.00 0.00 0.00 68 998.3
20260508130506 9 203 0.0 0.0 0.00 0.00 0.00 69 998.3
20260508130007 9 225 0.0 0.0 0.00 0.00 0.00 70 998.3
20260508125506 8 203 0.0 0.0 0.00 0.00 0.00 71 998.3
20260508125349 8 180 0.0 0.0 0.00 0.00 0.00 72 998.3
20260508124506 8 180 0.0 0.0 0.00 0.00 0.00 74 998.3
20260508124006 8 180 0.0 0.0 0.00 0.00 0.00 75 998.1
20260508123849 8 248 0.0 0.0 0.00 0.00 0.00 76 997.9
20260508123508 7 248 0.0 0.0 0.00 0.00 0.00 76 997.9
20260508123006 7 203 0.0 0.0 0.00 0.00 0.00 77 998.2
20260508122349 7 180 0.0 0.0 0.00 0.00 0.00 78 998.2
20260508121007 6 248 0.0 0.0 0.00 0.00 0.00 81 997.9
20260508120849 6 248 0.0 0.0 0.00 0.00 0.00 82 997.9
20260508120508 5 248 0.0 0.0 0.00 0.00 0.00 82 997.9
20260508120007 5 293 0.0 0.0 0.00 0.00 0.00 83 997.9
20260508115507 4 293 0.0 0.0 0.00 0.00 0.00 83 997.9
20260508115348 3 293 0.0 0.0 0.00 0.00 0.00 84 997.9
20260508115007 3 293 0.0 0.0 0.00 0.00 0.00 83 997.9
20260508114506 3 293 0.0 0.0 0.00 0.00 0.00 83 997.9
20260508114006 2 293 0.0 0.0 0.00 0.00 0.00 82 997.8
20260508113850 2 293 0.0 0.0 0.00 0.00 0.00 82 997.8
20260508113507 2 293 0.0 0.0 0.00 0.00 0.00 81 997.6
20260508112507 1 293 0.0 0.0 0.00 0.00 0.00 80 997.6
20260508112350 1 293 0.0 0.0 0.00 0.00 0.00 80 997.6
20260508112007 1 293 0.0 0.0 0.00 0.00 0.00 80 997.6
20260508111507 1 293 0.0 0.0 0.00 0.00 0.00 80 997.6
20260508111007 1 293 0.0 0.0 0.00 0.00 0.00 80 997.6
20260508110850 1 293 0.0 0.0 0.00 0.00 0.00 80 997.6
20260508105349 1 293 0.0 0.0 0.00 0.00 0.00 79 997.6
20260508105006 1 293 0.0 0.0 0.00 0.00 0.00 79 997.6
20260508104508 1 293 0.0 0.0 0.00 0.00 0.00 79 997.6
20260508104008 1 293 0.0 0.0 0.00 0.00 0.00 79 997.6
20260508103848 1 293 0.0 0.0 0.00 0.00 0.00 79 997.8
20260508103507 1 293 0.0 0.0 0.00 0.00 0.00 78 997.9
20260508102506 1 293 0.0 0.0 0.00 0.00 0.00 78 997.6
20260508102349 1 293 0.0 0.0 0.00 0.00 0.00 78 997.6
20260508101507 1 293 0.0 0.0 0.00 0.00 0.00 78 997.6
20260508101006 1 293 0.0 0.0 0.00 0.00 0.00 78 997.9
20260508100850 1 293 0.0 0.0 0.00 0.00 0.00 78 997.8
20260508100007 1 293 0.0 0.0 0.00 0.00 0.00 77 997.6
20260508095508 1 293 0.0 0.0 0.00 0.00 0.00 77 997.7
20260508095350 1 293 0.0 0.0 0.00 0.00 0.00 77 997.7
20260508094507 1 293 0.0 0.0 0.00 0.00 0.00 77 997.8
20260508093849 1 293 0.0 0.0 0.00 0.00 0.00 77 997.9
20260508093506 1 293 0.0 0.0 0.00 0.00 0.00 77 997.9
20260508093007 2 293 0.0 0.0 0.00 0.00 0.00 77 997.9
20260508092507 2 293 0.0 0.0 0.00 0.00 0.00 77 997.8
20260508092349 2 293 0.0 0.0 0.00 0.00 0.00 76 997.8
20260508092008 2 293 0.0 0.0 0.00 0.00 0.00 76 997.9
20260508091507 2 293 0.0 0.0 0.00 0.00 0.00 76 997.9
20260508090850 2 293 0.0 0.0 0.00 0.00 0.00 76 997.9
20260508090507 2 293 0.0 0.0 0.00 0.00 0.00 76 997.9
20260508090007 2 293 0.0 0.0 0.00 0.00 0.00 76 997.9
20260508085507 2 293 0.0 0.0 0.00 0.00 0.00 76 997.9
20260508085348 2 293 0.0 0.0 0.00 0.00 0.00 76 997.9
20260508084507 2 293 0.0 0.0 0.00 0.00 0.00 76 997.9
20260508084006 2 293 0.0 0.0 0.00 0.00 0.00 75 997.9
20260508083849 2 293 0.0 0.0 0.00 0.00 0.00 75 997.9
20260508083508 2 293 0.0 0.0 0.00 0.00 0.00 75 997.9
20260508082506 3 293 0.0 0.0 0.00 0.00 0.00 75 997.9
20260508082349 3 293 0.0 0.0 0.00 0.00 0.00 75 997.9
20260508082007 3 293 0.0 0.0 0.00 0.00 0.00 74 997.9
20260508081507 3 293 0.0 0.0 0.00 0.00 0.00 74 997.8
20260508081008 3 293 0.0 0.0 0.00 0.00 0.00 74 997.9
20260508080849 3 293 0.0 0.0 0.00 0.00 0.00 74 997.9
20260508080506 3 293 0.0 0.0 0.00 0.00 0.00 74 997.9
20260508075507 3 293 0.0 0.0 0.00 0.00 0.00 74 997.9
20260508075349 3 293 0.0 0.0 0.00 0.00 0.00 74 997.9
20260508075008 3 293 0.0 0.0 0.00 0.00 0.00 73 997.9
20260508074007 4 293 0.0 0.0 0.00 0.00 0.00 73 997.9
20260508073850 4 293 0.0 0.0 0.00 0.00 0.00 73 997.9
20260508073506 4 293 0.0 0.0 0.00 0.00 0.00 73 997.9
20260508072508 5 293 0.0 0.0 0.00 0.00 0.00 73 997.9
20260508072349 5 293 0.0 0.0 0.00 0.00 0.00 73 997.9
20260508072007 5 293 0.0 0.0 0.00 0.00 0.00 73 997.9
20260508071507 5 293 0.0 0.0 0.00 0.00 0.00 73 998.2
20260508071007 5 293 0.0 0.0 0.00 0.00 0.00 73 997.9
20260508070849 5 293 0.0 0.0 0.00 0.00 0.00 73 998.0
20260508070007 5 293 0.0 0.0 0.00 0.00 0.00 73 998.3
20260508065507 6 293 0.0 0.0 0.00 0.00 0.00 73 998.1
20260508065350 6 293 0.0 0.0 0.00 0.00 0.00 72 998.2
20260508065008 6 293 0.0 0.0 0.00 0.00 0.00 72 998.2
20260508064008 6 293 0.0 0.0 0.00 0.00 0.00 71 998.2
20260508063849 6 293 0.0 0.0 0.00 0.00 0.00 71 998.1
20260508063007 6 293 0.0 0.0 0.00 0.00 0.00 70 998.3
20260508062506 6 293 0.0 0.0 0.00 0.00 0.00 70 998.3
20260508062349 6 293 0.0 0.0 0.00 0.00 0.00 70 998.3
20260508062006 6 293 0.0 0.0 0.00 0.00 0.00 70 998.3
20260508061507 6 293 0.0 0.0 0.00 0.00 0.00 70 998.3
20260508060849 6 293 0.0 0.0 0.00 0.00 0.00 69 998.3
20260508060508 6 293 0.0 0.0 0.00 0.00 0.00 69 997.9
20260508055349 6 293 0.0 0.0 0.00 0.00 0.00 69 997.9
20260508055008 6 293 0.0 0.0 0.00 0.00 0.00 69 997.9
20260508054507 7 293 0.0 0.0 0.00 0.00 0.00 69 997.9
20260508053848 7 293 0.0 0.0 0.00 0.00 0.00 68 997.9
20260508053008 7 293 0.0 0.0 0.00 0.00 0.00 68 997.9
20260508052507 7 293 0.0 0.0 0.00 0.00 0.00 68 997.9
20260508052349 7 293 0.0 0.0 0.00 0.00 0.00 68 997.9
20260508052007 7 293 0.0 0.0 0.00 0.00 0.00 68 997.9
20260508050849 7 293 0.0 0.0 0.00 0.00 0.00 67 998.3
20260508050508 7 293 0.0 0.0 0.00 0.00 0.00 67 998.2
20260508050008 7 293 0.0 0.0 0.00 0.00 0.00 67 998.3
20260508045508 7 293 0.0 0.0 0.00 0.00 0.00 66 998.1
20260508045348 7 293 0.0 0.0 0.00 0.00 0.00 66 998.3
20260508045008 7 293 0.0 0.0 0.00 0.00 0.00 66 998.1
20260508044007 7 293 0.0 0.0 0.00 0.00 0.00 66 998.3
20260508043850 7 293 0.0 0.0 0.00 0.00 0.00 67 998.3
20260508043507 7 293 0.0 0.0 0.00 0.00 0.00 67 998.1